When you browse on this site, cookies collect data to enhance your experience and personalize the content and advertising you see.
Visit our Privacy Policy to learn more. By continuing to use the site, you agree to this use of cookies and data.
  • In Schweiz
  • Länderverzeichnis
  • Für 7 Tage
  • Wassertemperatur
  • Satellitenkarten
  • Wetterkarte
  • Widgets
  • user-avatar
    Anmelden

    Stündliche Wetter Völklingen

    Heute, 22 Juli, Montag

    Zeit Temperatur Niederschläge Wind Luftdruck Luftfeuchtigkeit
    00:00 +15°C° 0 mm 0 m/S 746 mmHg 85%
    01:00 +15°C° 0 mm 0 m/S 746 mmHg 86%
    02:00 +15°C° 0 mm 0 m/S 746 mmHg 86%
    03:00 +14°C° 0 mm 0 m/S 746 mmHg 87%
    04:00 +15°C° 0 mm 0 m/S 746 mmHg 84%
    05:00 +16°C° 0 mm 0 m/S 746 mmHg 81%
    06:00 +17°C° 0 mm 0 m/S 746 mmHg 78%
    07:00 +19°C° 0 mm 0 m/S 746 mmHg 69%
    08:00 +23°C° 0 mm 1 m/S 747 mmHg 60%
    09:00 +25°C° 0 mm 1 m/S 747 mmHg 51%
    10:00 +27°C° 0 mm 1 m/S 747 mmHg 47%
    11:00 +28°C° 0 mm 1 m/S 747 mmHg 43%
    12:00 +29°C° 0 mm 1 m/S 747 mmHg 39%
    13:00 +30°C° 0 mm 1 m/S 746 mmHg 38%
    14:00 +30°C° 0 mm 1 m/S 746 mmHg 37%
    15:00 +30°C° 0 mm 1 m/S 746 mmHg 36%
    16:00 +29°C° 0 mm 1 m/S 746 mmHg 42%
    17:00 +28°C° 0 mm 1 m/S 746 mmHg 48%
    18:00 +27°C° 0 mm 1 m/S 745 mmHg 54%
    19:00 +25°C° 0 mm 1 m/S 745 mmHg 58%
    20:00 +23°C° 0 mm 1 m/S 745 mmHg 63%
    21:00 +21°C° 0 mm 1 m/S 746 mmHg 68%
    22:00 +21°C° 0 mm 1 m/S 745 mmHg 69%
    23:00 +20°C° 0 mm 1 m/S 745 mmHg 70%

    Morgen, 23 Juli, Dienstag

    Zeit Temperatur Niederschläge Wind Luftdruck Luftfeuchtigkeit
    00:00 +20°C° 0 mm 1 m/S 745 mmHg 71%
    01:00 +19°C° 0 mm 1 m/S 745 mmHg 72%
    02:00 +18°C° 0 mm 2 m/S 745 mmHg 73%
    03:00 +17°C° 0 mm 2 m/S 744 mmHg 74%
    04:00 +18°C° 0 mm 2 m/S 744 mmHg 71%
    05:00 +19°C° 0 mm 2 m/S 744 mmHg 69%
    06:00 +20°C° 0 mm 2 m/S 744 mmHg 66%
    07:00 +24°C° 0 mm 3 m/S 744 mmHg 61%
    08:00 +26°C° 0 mm 3 m/S 744 mmHg 55%
    09:00 +28°C° 0 mm 4 m/S 744 mmHg 50%
    10:00 +29°C° 0 mm 4 m/S 744 mmHg 46%
    11:00 +32°C° 0 mm 4 m/S 744 mmHg 43%
    12:00 +33°C° 0 mm 4 m/S 743 mmHg 39%
    13:00 +33°C° 0 mm 3 m/S 743 mmHg 39%
    14:00 +34°C° 0 mm 3 m/S 743 mmHg 38%
    15:00 +34°C° 0 mm 3 m/S 742 mmHg 38%
    16:00 +33°C° 0 mm 3 m/S 742 mmHg 44%
    17:00 +30°C° 0 mm 2 m/S 741 mmHg 49%
    18:00 +29°C° 0 mm 2 m/S 741 mmHg 55%
    19:00 +27°C° 0 mm 2 m/S 741 mmHg 59%
    20:00 +25°C° 0 mm 2 m/S 741 mmHg 63%
    21:00 +24°C° 0 mm 2 m/S 742 mmHg 67%
    22:00 +23°C° 0 mm 2 m/S 741 mmHg 70%
    23:00 +21°C° 0 mm 2 m/S 741 mmHg 73%

    übermorgen, 24 Juli, Mittwoch

    Zeit Temperatur Niederschläge Wind Luftdruck Luftfeuchtigkeit
    00:00 +21°C° 0 mm 2 m/S 741 mmHg 76%
    01:00 +20°C° 0 mm 2 m/S 741 mmHg 79%
    02:00 +20°C° 0 mm 2 m/S 740 mmHg 82%
    03:00 +19°C° 0 mm 2 m/S 740 mmHg 85%
    04:00 +20°C° 0 mm 2 m/S 740 mmHg 82%
    05:00 +21°C° 0 mm 2 m/S 740 mmHg 79%
    06:00 +23°C° 0 mm 2 m/S 741 mmHg 76%
    07:00 +25°C° 0 mm 2 m/S 741 mmHg 69%
    08:00 +27°C° 0 mm 2 m/S 741 mmHg 62%
    09:00 +30°C° 0 mm 2 m/S 741 mmHg 55%
    10:00 +31°C° 0 mm 2 m/S 741 mmHg 50%
    11:00 +33°C° 0 mm 1 m/S 741 mmHg 45%
    12:00 +35°C° 0 mm 1 m/S 740 mmHg 40%
    13:00 +35°C° 0 mm 1 m/S 740 mmHg 38%
    14:00 +35°C° 0 mm 1 m/S 740 mmHg 36%
    15:00 +36°C° 0 mm 1 m/S 740 mmHg 34%
    16:00 +34°C° 0 mm 1 m/S 740 mmHg 40%
    17:00 +34°C° 0 mm 2 m/S 739 mmHg 46%
    18:00 +31°C° 0 mm 2 m/S 739 mmHg 52%
    19:00 +30°C° 0 mm 2 m/S 740 mmHg 55%
    20:00 +28°C° 0 mm 2 m/S 740 mmHg 59%
    21:00 +26°C° 0 mm 2 m/S 740 mmHg 62%
    22:00 +25°C° 0 mm 2 m/S 740 mmHg 65%
    23:00 +24°C° 0 mm 2 m/S 740 mmHg 68%

    25 Juli, Donnerstag

    Zeit Temperatur Niederschläge Wind Luftdruck Luftfeuchtigkeit
    00:00 +24°C° 0 mm 2 m/S 740 mmHg 71%
    01:00 +23°C° 0 mm 2 m/S 739 mmHg 74%
    02:00 +23°C° 0 mm 2 m/S 739 mmHg 78%
    03:00 +21°C° 0 mm 2 m/S 739 mmHg 81%
    04:00 +23°C° 0 mm 2 m/S 739 mmHg 79%
    05:00 +24°C° 0 mm 2 m/S 739 mmHg 77%
    06:00 +25°C° 0 mm 2 m/S 739 mmHg 75%
    07:00 +27°C° 0 mm 3 m/S 740 mmHg 67%
    08:00 +29°C° 0 mm 3 m/S 740 mmHg 59%
    09:00 +33°C° 0 mm 3 m/S 740 mmHg 51%
    10:00 +34°C° 0 mm 3 m/S 739 mmHg 46%
    11:00 +35°C° 0 mm 3 m/S 739 mmHg 41%
    12:00 +37°C° 0 mm 4 m/S 739 mmHg 36%
    13:00 +37°C° 0 mm 3 m/S 738 mmHg 35%
    14:00 +37°C° 0 mm 3 m/S 738 mmHg 34%
    15:00 +38°C° 0 mm 3 m/S 738 mmHg 33%
    16:00 +36°C° 0 mm 3 m/S 737 mmHg 38%
    17:00 +35°C° 0 mm 3 m/S 737 mmHg 43%
    18:00 +34°C° 0 mm 3 m/S 737 mmHg 48%
    19:00 +31°C° 0 mm 3 m/S 737 mmHg 53%
    20:00 +29°C° 0 mm 3 m/S 737 mmHg 58%
    21:00 +27°C° 0 mm 3 m/S 737 mmHg 63%
    22:00 +26°C° 0 mm 2 m/S 736 mmHg 67%
    23:00 +26°C° 0 mm 2 m/S 736 mmHg 71%

    26 Juli, Freitag

    Zeit Temperatur Niederschläge Wind Luftdruck Luftfeuchtigkeit
    00:00 +25°C° 0 mm 2 m/S 736 mmHg 75%
    01:00 +25°C° 0 mm 2 m/S 736 mmHg 78%
    02:00 +24°C° 0 mm 2 m/S 736 mmHg 81%
    03:00 +24°C° 0 mm 1 m/S 735 mmHg 84%
    04:00 +25°C° 0 mm 1 m/S 735 mmHg 80%
    05:00 +25°C° 0 mm 2 m/S 735 mmHg 75%
    06:00 +26°C° 0 mm 2 m/S 735 mmHg 71%
    07:00 +28°C° 0 mm 3 m/S 736 mmHg 59%
    08:00 +30°C° 0 mm 4 m/S 736 mmHg 47%
    09:00 +32°C° 0 mm 6 m/S 737 mmHg 35%
    10:00 +32°C° 0.2 mm 5 m/S 736 mmHg 38%
    11:00 +32°C° 0.2 mm 5 m/S 736 mmHg 42%
    12:00 +32°C° 0.2 mm 5 m/S 736 mmHg 45%
    13:00 +32°C° 0 mm 4 m/S 736 mmHg 45%
    14:00 +33°C° 0 mm 4 m/S 736 mmHg 45%
    15:00 +34°C° 0 mm 4 m/S 736 mmHg 45%
    16:00 +33°C° 0.1 mm 4 m/S 736 mmHg 50%
    17:00 +30°C° 0.1 mm 4 m/S 736 mmHg 56%
    18:00 +29°C° 0.1 mm 4 m/S 736 mmHg 61%
    19:00 +27°C° 0.8 mm 4 m/S 737 mmHg 70%
    20:00 +25°C° 0.8 mm 4 m/S 737 mmHg 78%
    21:00 +22°C° 0.8 mm 4 m/S 737 mmHg 87%
    22:00 +21°C° 1.8 mm 4 m/S 738 mmHg 89%
    23:00 +21°C° 1.8 mm 4 m/S 738 mmHg 92%

    27 Juli, Samstag

    Zeit Temperatur Niederschläge Wind Luftdruck Luftfeuchtigkeit
    00:00 +20°C° 1.8 mm 3 m/S 738 mmHg 94%
    01:00 +20°C° 1.1 mm 3 m/S 738 mmHg 94%
    02:00 +19°C° 1.1 mm 3 m/S 738 mmHg 95%
    03:00 +19°C° 1.1 mm 2 m/S 738 mmHg 95%
    04:00 +19°C° 0 mm 2 m/S 738 mmHg 94%
    05:00 +19°C° 0 mm 2 m/S 738 mmHg 93%
    06:00 +19°C° 0 mm 2 m/S 738 mmHg 92%
    07:00 +19°C° 0.2 mm 2 m/S 738 mmHg 91%
    08:00 +19°C° 0.2 mm 2 m/S 739 mmHg 90%
    09:00 +20°C° 0.2 mm 3 m/S 739 mmHg 89%
    10:00 +19°C° 0.9 mm 2 m/S 739 mmHg 90%
    11:00 +19°C° 0.9 mm 2 m/S 739 mmHg 91%
    12:00 +19°C° 0.9 mm 2 m/S 739 mmHg 91%
    13:00 +20°C° 0.4 mm 2 m/S 739 mmHg 88%
    14:00 +20°C° 0.4 mm 2 m/S 739 mmHg 85%
    15:00 +21°C° 0.4 mm 2 m/S 739 mmHg 81%
    16:00 +22°C° 0.3 mm 1 m/S 740 mmHg 79%
    17:00 +22°C° 0.3 mm 1 m/S 740 mmHg 77%
    18:00 +23°C° 0.3 mm 1 m/S 740 mmHg 75%
    19:00 +21°C° 0 mm 1 m/S 740 mmHg 75%
    20:00 +19°C° 0 mm 1 m/S 740 mmHg 76%
    21:00 +18°C° 0 mm 1 m/S 741 mmHg 76%
    22:00 +16°C° 0 mm 1 m/S 741 mmHg 78%
    23:00 +16°C° 0 mm 1 m/S 741 mmHg 79%
    Mehr zeigen